TimeMDT,TemperatureF,Dew PointF,Humidity,Sea Level PressureIn,VisibilityMPH,Wind Direction,Wind SpeedMPH,Gust SpeedMPH,PrecipitationIn,Events,Conditions,WindDirDegrees,DateUTC
12:54 AM,39.0,26.1,60,30.41,10.0,SE,6.9,-,N/A,,Clear,140,2013-05-11 06:54:00
1:54 AM,37.9,26.1,62,30.39,10.0,ESE,5.8,-,N/A,,Clear,120,2013-05-11 07:54:00
2:54 AM,37.0,25.0,62,30.38,10.0,SSE,4.6,-,N/A,,Clear,160,2013-05-11 08:54:00
3:54 AM,35.1,25.0,67,30.37,10.0,ESE,8.1,-,N/A,,Clear,120,2013-05-11 09:54:00
4:54 AM,34.0,24.1,67,30.35,10.0,SE,5.8,-,N/A,,Clear,130,2013-05-11 10:54:00
5:54 AM,37.9,23.0,55,30.32,10.0,SE,6.9,-,N/A,,Clear,130,2013-05-11 11:54:00
6:54 AM,41.0,25.0,53,30.30,10.0,ESE,6.9,-,N/A,,Partly Cloudy,110,2013-05-11 12:54:00
7:54 AM,46.0,27.0,47,30.28,10.0,SE,8.1,-,N/A,,Mostly Cloudy,140,2013-05-11 13:54:00
8:54 AM,48.9,28.9,46,30.27,10.0,East,10.4,-,N/A,,Overcast,100,2013-05-11 14:54:00
9:54 AM,55.0,30.9,40,30.25,10.0,East,5.8,-,N/A,,Overcast,90,2013-05-11 15:54:00
10:54 AM,59.0,32.0,36,30.23,10.0,Variable,4.6,-,N/A,,Scattered Clouds,0,2013-05-11 16:54:00
11:54 AM,61.0,35.1,38,30.23,10.0,Calm,Calm,-,0.00,,Mostly Cloudy,0,2013-05-11 17:54:00
12:54 PM,64.9,36.0,34,30.18,10.0,SSE,8.1,-,N/A,,Mostly Cloudy,150,2013-05-11 18:54:00
1:54 PM,68.0,34.0,28,30.15,8.0,Calm,Calm,-,N/A,,Mostly Cloudy,0,2013-05-11 19:54:00
3:54 PM,73.0,34.0,24,30.10,10.0,West,13.8,-,N/A,,Clear,270,2013-05-11 21:54:00
4:54 PM,72.0,35.1,26,30.09,10.0,WSW,5.8,-,N/A,,Clear,250,2013-05-11 22:54:00
5:54 PM,71.1,35.1,27,30.08,10.0,West,10.4,-,N/A,,Mostly Cloudy,260,2013-05-11 23:54:00
6:54 PM,70.0,37.0,30,30.06,10.0,WNW,5.8,-,N/A,,Partly Cloudy,300,2013-05-12 00:54:00
7:54 PM,66.9,44.1,44,30.04,10.0,SW,4.6,-,N/A,,Partly Cloudy,220,2013-05-12 01:54:00
8:54 PM,57.9,39.0,49,30.04,10.0,South,6.9,-,N/A,,Clear,190,2013-05-12 02:54:00
9:54 PM,57.0,37.9,49,30.04,10.0,South,8.1,-,N/A,,Clear,180,2013-05-12 03:54:00
10:54 PM,55.0,39.0,55,30.04,10.0,Variable,5.8,-,0.00,Rain,Light Rain,0,2013-05-12 04:54:00
11:54 PM,52.0,37.9,59,30.04,10.0,ESE,4.6,-,0.00,,Clear,120,2013-05-12 05:54:00